TimeCDT,TemperatureF,Dew PointF,Humidity,Sea Level PressureIn,VisibilityMPH,Wind Direction,Wind SpeedMPH,Gust SpeedMPH,PrecipitationIn,Events,Conditions,WindDirDegrees,DateUTC
12:52 AM,33.1,30.0,89,29.70,10.0,Calm,Calm,-,N/A,,Clear,0,2014-03-11 05:52:00
1:52 AM,34.0,30.0,85,29.68,10.0,Calm,Calm,-,N/A,,Scattered Clouds,0,2014-03-11 06:52:00
2:52 AM,33.1,30.0,89,29.69,10.0,Calm,Calm,-,N/A,,Clear,0,2014-03-11 07:52:00
3:52 AM,32.0,30.0,92,29.66,10.0,Calm,Calm,-,N/A,,Clear,0,2014-03-11 08:52:00
4:52 AM,32.0,30.0,92,29.64,9.0,ENE,3.5,-,N/A,,Clear,70,2014-03-11 09:52:00
5:52 AM,34.0,30.9,89,29.66,10.0,Calm,Calm,-,N/A,,Clear,0,2014-03-11 10:52:00
6:52 AM,33.1,30.0,89,29.67,9.0,Calm,Calm,-,N/A,,Clear,0,2014-03-11 11:52:00
7:52 AM,34.0,32.0,92,29.66,5.0,East,3.5,-,N/A,,Scattered Clouds,100,2014-03-11 12:52:00
8:52 AM,37.9,34.0,86,29.68,5.0,East,3.5,-,N/A,,Clear,90,2014-03-11 13:52:00
9:52 AM,41.0,36.0,82,29.66,6.0,NE,8.1,-,N/A,,Haze,50,2014-03-11 14:52:00
10:52 AM,44.1,37.0,76,29.67,7.0,NNE,5.8,-,N/A,,Mostly Cloudy,30,2014-03-11 15:52:00
11:52 AM,48.0,37.0,66,29.65,10.0,ENE,10.4,-,N/A,,Clear,60,2014-03-11 16:52:00
12:52 PM,50.0,36.0,59,29.67,10.0,NE,13.8,-,N/A,,Clear,40,2014-03-11 17:52:00
1:52 PM,48.9,35.1,59,29.65,10.0,NE,10.4,-,N/A,,Clear,50,2014-03-11 18:52:00
2:52 PM,48.0,32.0,54,29.67,10.0,NE,18.4,26.5,N/A,,Clear,40,2014-03-11 19:52:00
3:52 PM,46.9,35.1,63,29.69,10.0,NE,17.3,25.3,N/A,,Clear,50,2014-03-11 20:52:00
4:52 PM,45.0,34.0,65,29.69,10.0,NE,18.4,25.3,N/A,,Clear,50,2014-03-11 21:52:00
5:52 PM,44.1,35.1,71,29.70,10.0,NE,16.1,25.3,N/A,,Clear,50,2014-03-11 22:52:00
6:52 PM,42.1,33.1,70,29.76,10.0,NNE,16.1,29.9,N/A,,Mostly Cloudy,30,2014-03-11 23:52:00
7:52 PM,41.0,33.1,73,29.77,10.0,NNE,16.1,24.2,N/A,,Overcast,20,2014-03-12 00:52:00
8:25 PM,39.2,33.8,81,29.76,10.0,NNE,13.8,20.7,N/A,Thunderstorm,Overcast,20,2014-03-12 01:25:00
8:40 PM,39.2,33.8,81,29.77,10.0,North,13.8,-,0.00,Rain,Light Rain,10,2014-03-12 01:40:00
8:52 PM,39.0,33.1,79,29.78,10.0,NNE,11.5,19.6,0.00,Rain,Light Rain,30,2014-03-12 01:52:00
9:52 PM,39.0,33.1,79,29.78,10.0,North,12.7,-,0.00,,Overcast,10,2014-03-12 02:52:00
10:52 PM,39.0,33.1,79,29.77,10.0,NNE,12.7,19.6,N/A,,Overcast,30,2014-03-12 03:52:00
11:24 PM,37.4,33.8,87,29.76,10.0,North,9.2,-,N/A,,Overcast,10,2014-03-12 04:24:00
11:52 PM,37.9,33.1,83,29.78,10.0,NNW,6.9,-,0.00,Rain,Light Rain,330,2014-03-12 04:52:00